CZ-3C DEB, 39353

Orbit data source: Space-Track

CZ-3C DEB, 39353 is space debris in HEO originally from a launch on Sun, 31 Oct 2010 UTC launched from the Xichang Space Center, China (XSC). Debris objects in space refer to the collection of defunct objects orbiting the Earth. Examples of debris include non-operational satellites, rocket bodies, and fragments generated from explosions, collisions, or faulty payload assembly.

Loading next visibility...
Identifier
39353, 2010-057T
Orbit
HEO
Country
Flag of CNCN / PRC
Related business
Manufacturer
CALT
Mission
Spacecraft
Bus & Motor
Unknown
Mass
Unknown
Launch date (UTC)
2010-10-31 (16 years ago)
Launch vehicle
Unknown
Launch site
Xichang Space Center, China (XSC)
Object type
Payload
Rocket body
Debris
Shape & HBR
Unknown shape, 0.3 m
Radar Cross Section
Medium (>0.1 m² and <1 m²)

Expand to show TLE details & history
Last TLE update: 2 days ago

TLE from 2 days ago
0 CZ-3C DEB
1 39353U 10057T   26262.46676897 -.00000047  00000-0  21614-2 0  9995
2 39353  20.4043  45.1775 7145497 264.9005  28.0884  2.24424821105915
Epoch: 2026-09-19T11:12Z
TLE epoch observation values (Epoch: 2026-09-19T11:12:08.839Z)
Latitude
6.75766°
Longitude
-102.70798°
Altitude
10,823.436 km
Speed
5.492 km/s
True Right ascension
04h 14m 48s
True Declination
6° 44' 28"
Sunlit
Object was in daylight at epoch
Visualization orbit readout
Latitude
Unknown
Longitude
Unknown
Altitude
Unknown
Speed
Unknown
Apparent Right ascension
Unknown
Apparent Declination
Unknown
Sunlit
N/A
Visualization observer readout
Local Sidereal Time
08:58:16
Azimuth
Unknown
Elevation
Unknown
Doppler factor
Unknown
Orbital elements
Apogee altitude
35,880.305 km
Perigee altitude
657.346 km
Semi-major axis
24,646.963 km
Eccentricity
0.71455
Inclination
20.4043°
RAAN
45.1775°
Arg. of periapsis
264.9005°
True anomaly
114.99908°
Mean anomaly
28.0884°
Eccentric anomaly
65.27625°
Mean motion
0.56092 °/min
Orbital period
641.81 mins
BSTAR
0.0021614
Loading maneuver chart data...
Computing Atmospheric mass density...
Loading historical data...
Loading historical data...
Loading historical data...
Loading historical data...
Loading historical data...
Loading historical data...
Loading historical data...

Documentation

Showing up to 5 results
|